Log in  \/ 
x
x

Gillespie Operations

The Plus One Flyers, Inc SEE office is located at 1987 N.Marshall Ave, El Cajon 92020

Your Plus One key will open the lock box where the office key is located. PLEASE BE SURE TO PUT THE KEY BACK IN THE BOX.

We just did a major remodel of the facility and we now have a large meeting/ class room with a large screen TV for presentations. 

Go check it out!

 

Additional info
  • Operations Officer: Dave Eby
  • Phone Number: 619-279-7499
  • E-Mail: seeops@plusoneflyers.org
Comments
  • No comments found

Leave your comments

0 Character restriction
Your text should be more than 10 characters
terms and condition.
Special Instructions

Use your Plus One key to gain access to the real estate lock box.  This key will open the door.  Please remember to return the key to the lock box.

Gillespie Weather

[source: ADDS]
METAR
KSEE 160247Z VRB06KT 10SM SKC 15/M07 A3001 =
KNKX 160255Z 05004KT 10SM CLR 14/M07 A2999 RMK AO2 SLP152 T01391067 58005 =
TAF
TAF KNKX 1603/1703 08005KT 9999 SKC QNH2996INS BECMG 1619/1621 30008KT 9999 FEW250 QNH2969INS T11/1615Z T27/1621Z =
SR / SS: 14:44 / 00:43 UTC ( 2017-12-16)

Gillespie Operations Map